Wind_Speed
5 5 4 3 3 4 4 4 4 4 4 4 4 5 5 5 5 5 5 5 5 5 5 5 5 6 5 5 6 7 7 7 7 6 6 6 6 7 7 7 8 8 8
7 6 5 5 4 4 4 4 4 4 4 4 4 4 4 4 4 5 5 5 5 6 6 6 6 6 6 7 7 7 8 8 7 7 7 7 8 8 8 8 9 9 9
7 7 6 6 5 5 5 5 5 5 5 4 5 5 5 5 5 5 5 5 5 5 6 7 7 7 7 8 8 8 7 6 7 7 8 9 9 10 9 10 9 10 11
8 8 7 7 6 7 6 6 6 5 5 5 5 6 5 5 5 5 6 6 6 7 7 8 7 7 8 8 8 8 8 8 8 8 9 10 10 10 10 10 11 10 11
9 8 8 7 7 7 7 7 6 6 5 6 6 6 6 6 5 6 7 7 8 7 7 8 8 8 9 8 7 7 8 9 9 10 11 11 11 11 11 11 10 10 10
9 9 8 8 8 7 7 7 7 7 7 6 6 6 6 7 7 7 8 8 8 8 8 8 8 8 9 9 8 8 8 9 10 10 12 12 12 12 12 11 11 11 11
8 8 8 8 7 7 8 8 7 7 7 7 7 7 8 8 8 8 9 9 9 8 8 9 9 9 9 9 9 9 9 10 10 10 11 11 11 12 12 12 12 12 12
8 8 8 8 8 8 8 8 8 9 9 9 9 8 8 9 9 9 10 10 10 10 10 10 10 10 10 10 10 10 10 10 10 10 10 10 10 11 11 12 13 13 13
9 9 9 9 9 9 9 9 9 9 9 9 10 10 10 10 11 11 11 11 11 11 11 11 11 10 10 10 10 11 11 11 11 11 12 11 11 12 12 12 12 13 13
11 11 11 11 10 10 10 10 10 10 9 10 10 10 10 11 12 12 12 11 11 12 12 12 12 11 11 11 11 12 12 12 13 13 13 13 13 13 13 13 13 13 14
12 12 12 11 10 10 10 10 10 10 10 10 10 11 11 11 12 12 12 12 12 12 11 12 12 12 12 12 13 13 14 14 14 14 13 13 14 14 13 13 14 14 14
11 11 12 12 12 11 11 11 11 12 12 12 12 12 12 12 12 13 13 13 13 12 12 12 13 14 13 14 14 14 15 15 15 15 15 15 15 15 14 13 14 14 14
11 12 12 12 12 11 12 12 13 13 13 13 14 13 13 13 13 13 12 13 13 13 14 14 15 15 15 15 15 15 15 15 15 16 16 15 15 15 15 15 15 15 15
11 11 11 12 13 13 13 14 14 14 15 15 15 15 15 15 15 15 14 13 14 14 15 15 16 16 16 16 16 15 15 15 15 15 15 15 15 15 15 15 16 16 16
11 12 12 12 13 13 14 15 15 15 16 16 16 16 16 16 16 15 15 15 15 15 15 16 17 17 16 16 16 16 15 16 16 16 16 16 16 16 16 16 17 17 17
13 13 13 14 14 15 16 16 17 17 16 16 16 17 17 16 16 16 16 17 17 17 16 17 18 18 17 17 16 16 16 17 17 16 16 17 18 18 18 18 18 18 18
14 14 15 15 15 16 16 17 18 18 18 18 17 18 17 17 17 18 18 18 19 19 19 19 19 19 18 18 18 18 17 17 18 18 18 18 19 20 19 19 20 20 19
14 15 15 16 16 17 17 18 18 18 19 19 19 19 19 19 19 20 20 20 21 21 20 20 20 21 20 20 20 19 18 18 19 19 19 20 20 21 21 21 20 20 20
15 16 16 17 17 18 18 18 19 19 19 20 21 21 20 20 21 21 22 22 22 22 22 22 21 22 22 21 21 20 20 20 20 20 21 21 22 22 22 21 21 21 21
17 17 17 17 18 19 19 19 20 20 21 21 21 21 21 21 21 22 22 22 23 23 23 23 23 23 23 22 22 22 21 21 21 21 22 22 22 22 22 22 22 22 22
17 18 18 18 19 19 20 20 21 22 22 22 22 23 23 23 23 23 23 24 25 25 24 23 24 24 23 23 23 22 22 23 23 23 23 23 23 23 23 23 23 23 23
19 19 19 19 20 20 21 22 23 23 23 23 24 24 24 25 25 25 24 24 24 24 24 24 24 24 24 24 24 23 23 23 23 24 24 23 23 24 24 23 23 23 23
21 20 20 20 21 22 23 23 24 24 24 24 24 25 25 26 25 25 26 25 25 25 25 25 25 25 25 25 26 25 25 25 24 25 25 25 24 24 24 24 24 24 23
22 22 21 21 21 21 22 23 23 24 24 24 25 25 25 26 26 26 26 25 25 25 25 25 25 25 25 26 27 27 26 26 26 26 26 25 25 25 24 24 25 25 25
22 23 22 22 22 22 23 23 24 25 25 24 24 24 24 25 26 26 26 26 26 25 26 26 26 26 26 26 27 27 26 26 26 27 27 26 26 26 26 25 26 26 26
23 23 23 22 22 23 23 24 25 25 24 24 24 24 24 24 25 25 26 26 26 26 26 26 25 25 25 26 27 27 27 27 27 27 27 28 27 26 26 26 27 27 26
Wind_Direction
289 292 291 291 287 284 282 280 271 264 255 246 244 245 246 251 257 251 250 260 263 266 268 274 278 285 287 277 269 265 260 258 255 255 258 257 256 259 266 266 263 263 264
282 284 280 277 278 275 270 276 275 261 254 254 257 258 259 260 268 254 254 260 262 265 271 277 278 283 283 277 276 276 269 259 252 250 253 254 254 266 270 271 267 262 264
278 272 273 274 269 269 267 273 271 264 263 260 259 265 269 269 264 260 259 265 266 273 279 278 277 282 279 277 276 273 267 260 251 255 258 260 261 266 272 274 270 260 263
273 268 267 269 265 266 268 273 275 266 271 270 268 272 277 278 270 266 272 273 275 280 280 279 281 280 274 272 271 269 261 256 257 263 267 261 262 266 270 273 269 269 268
272 266 262 260 262 264 261 259 264 267 265 268 270 268 270 271 274 278 280 276 277 281 281 280 279 276 272 271 269 271 261 256 261 263 265 266 265 266 271 272 271 274 273
275 267 259 256 255 255 254 256 264 265 265 271 269 268 270 271 273 276 279 277 276 276 275 278 282 278 272 271 269 268 266 262 266 269 267 265 265 265 268 268 268 267 269
274 265 257 253 252 250 253 259 263 265 270 275 272 269 266 264 268 271 275 279 278 275 276 280 284 281 273 270 269 267 270 268 272 274 272 270 267 264 266 267 265 265 264
266 266 261 261 260 260 261 261 266 270 270 270 269 268 264 262 265 269 274 278 277 276 276 277 278 278 272 267 267 269 270 269 272 275 276 272 269 268 268 268 266 263 263
264 264 262 263 259 258 261 260 263 266 267 267 268 267 262 261 265 268 270 273 274 274 272 271 273 274 273 268 269 271 270 270 273 277 275 270 270 269 272 272 271 267 265
267 265 263 261 258 259 259 262 264 269 267 269 270 269 268 270 269 268 267 267 271 272 271 270 273 274 275 272 270 271 272 274 274 276 274 272 273 274 274 272 272 270 269
270 264 261 257 256 259 262 266 267 268 269 272 272 271 270 272 271 268 266 267 268 269 272 272 272 275 274 275 274 273 273 273 274 274 272 274 273 273 273 272 271 269 270
267 262 258 255 257 259 260 265 267 268 269 270 273 273 272 272 269 267 267 267 267 267 271 272 272 272 272 273 273 274 274 272 271 271 270 273 273 273 273 274 271 273 272
264 262 263 263 263 261 261 265 266 265 269 271 274 275 274 271 269 266 265 266 268 268 270 273 273 272 273 274 273 273 275 276 272 271 272 273 276 277 275 275 274 275 274
264 266 269 268 265 262 263 266 266 265 267 270 273 274 274 272 271 268 265 265 265 268 271 271 271 273 274 274 273 271 272 273 272 272 274 274 277 278 275 275 274 274 274
271 269 269 271 270 266 267 267 268 266 267 270 273 274 276 276 272 268 268 268 267 265 268 271 271 272 274 273 273 272 270 271 272 273 274 274 274 274 274 274 273 273 274
272 272 270 271 271 269 268 268 268 267 268 271 273 274 274 272 274 271 269 270 270 267 264 268 269 270 273 273 272 273 272 272 272 271 271 272 272 272 274 273 273 274 275
275 275 273 274 273 273 269 268 270 268 267 269 272 274 271 272 273 272 271 271 272 270 266 267 269 271 272 273 272 271 274 274 271 270 271 272 273 273 273 272 273 274 274
276 278 278 277 274 272 271 270 272 271 270 271 272 272 272 273 272 273 272 272 272 270 269 269 269 269 271 272 272 271 272 274 272 271 270 271 272 273 272 272 271 272 273
274 276 276 276 273 271 271 272 272 271 270 272 272 272 272 273 272 272 271 272 271 270 269 269 269 269 270 270 270 270 273 274 274 273 271 270 271 272 271 271 271 271 272
275 275 275 275 274 273 272 273 271 271 271 271 272 273 275 276 276 273 271 272 272 271 270 269 269 269 269 269 269 271 272 272 274 274 273 272 272 272 273 273 273 272 272
276 277 276 274 274 274 274 273 272 272 271 271 272 274 277 278 278 275 273 272 272 271 271 270 269 268 268 268 268 270 271 271 270 272 274 273 273 273 272 273 273 273 272
276 277 276 275 275 275 274 274 273 271 271 271 271 273 274 276 276 275 274 273 273 272 271 270 268 268 268 268 269 270 271 271 270 271 272 272 273 273 272 274 273 272 271
275 276 277 277 277 276 275 275 274 271 271 271 272 273 274 274 275 274 272 273 274 273 271 270 269 269 268 269 270 272 273 272 272 273 272 271 271 273 274 272 272 272 272
274 276 277 277 277 277 277 276 275 273 273 271 272 273 273 273 274 275 274 274 275 273 272 271 270 270 269 271 272 273 274 273 271 271 272 271 270 270 271 271 271 272 272
272 274 275 276 277 278 277 277 278 278 276 274 273 273 273 273 274 275 276 275 275 274 274 271 270 270 271 272 273 272 273 273 272 270 270 270 270 269 269 269 270 271 271
272 273 273 274 276 277 277 277 278 279 277 275 274 273 273 274 273 273 274 275 274 274 276 274 273 273 272 272 273 273 272 272 272 271 270 270 270 270 268 268 269 269 268
Height
5873 5873 5872 5872 5871 5871 5871 5870 5870 5870 5870 5870 5870 5871 5871 5871 5871 5871 5871 5871 5871 5871 5871 5870 5870 5870 5870 5869 5869 5869 5869 5869 5869 5869 5869 5869 5869 5869 5868 5868 5868 5868 5869
5871 5871 5871 5870 5870 5870 5869 5869 5869 5869 5869 5869 5869 5869 5869 5869 5869 5869 5869 5869 5869 5869 5869 5869 5869 5869 5868 5868 5868 5867 5867 5867 5867 5867 5867 5867 5867 5867 5866 5866 5866 5866 5866
5869 5869 5869 5869 5868 5868 5868 5868 5868 5868 5869 5868 5868 5868 5868 5868 5868 5868 5868 5868 5867 5867 5867 5867 5867 5867 5866 5866 5866 5865 5865 5865 5865 5865 5865 5865 5865 5865 5864 5864 5864 5864 5864
5867 5867 5867 5867 5867 5867 5867 5867 5866 5867 5867 5867 5867 5867 5867 5867 5867 5867 5866 5866 5866 5866 5865 5865 5865 5865 5864 5864 5864 5863 5863 5863 5863 5862 5862 5862 5862 5862 5862 5861 5861 5861 5861
5864 5865 5865 5865 5865 5865 5865 5865 5865 5865 5865 5865 5865 5865 5865 5865 5865 5865 5865 5864 5864 5864 5863 5863 5863 5863 5862 5861 5861 5861 5861 5860 5860 5860 5860 5860 5860 5859 5859 5859 5859 5859 5859
5862 5862 5862 5862 5863 5863 5863 5863 5863 5863 5863 5863 5863 5863 5863 5863 5863 5863 5863 5862 5862 5862 5861 5861 5861 5860 5860 5859 5859 5859 5858 5858 5858 5857 5857 5857 5857 5856 5856 5856 5856 5856 5856
5859 5859 5860 5860 5860 5860 5860 5861 5861 5861 5861 5861 5861 5861 5861 5861 5861 5861 5860 5860 5860 5860 5859 5859 5858 5858 5857 5857 5856 5856 5856 5856 5855 5854 5854 5854 5853 5853 5853 5853 5852 5852 5852
5857 5857 5857 5857 5858 5858 5858 5858 5859 5859 5859 5859 5859 5859 5859 5859 5859 5858 5858 5857 5857 5857 5857 5856 5856 5855 5855 5854 5854 5853 5853 5853 5852 5852 5851 5851 5850 5850 5850 5849 5849 5849 5849
5854 5854 5854 5855 5855 5855 5855 5855 5855 5856 5856 5856 5856 5856 5856 5856 5856 5856 5855 5855 5854 5854 5854 5853 5853 5852 5851 5851 5851 5850 5850 5849 5849 5849 5848 5848 5848 5847 5847 5846 5846 5846 5845
5851 5851 5851 5851 5852 5852 5852 5852 5852 5852 5853 5853 5852 5852 5852 5852 5852 5852 5852 5851 5851 5851 5850 5850 5849 5849 5848 5848 5848 5847 5847 5846 5846 5845 5845 5844 5844 5844 5843 5843 5843 5842 5842
5848 5848 5848 5848 5848 5849 5849 5849 5849 5849 5849 5849 5849 5849 5849 5848 5848 5848 5848 5848 5847 5847 5847 5846 5846 5845 5845 5844 5844 5844 5843 5843 5843 5842 5841 5841 5840 5840 5840 5839 5839 5839 5838
5844 5844 5844 5844 5844 5845 5845 5846 5846 5846 5846 5846 5846 5845 5845 5845 5845 5845 5844 5844 5844 5843 5843 5843 5842 5842 5841 5841 5840 5840 5839 5839 5839 5838 5838 5837 5837 5836 5836 5835 5835 5835 5834
5841 5841 5841 5841 5841 5842 5842 5842 5842 5842 5842 5842 5842 5842 5841 5841 5841 5841 5841 5840 5840 5840 5839 5839 5838 5838 5837 5837 5836 5836 5835 5835 5835 5834 5834 5833 5833 5832 5832 5832 5831 5831 5831
5837 5837 5837 5838 5838 5838 5838 5838 5838 5838 5838 5838 5838 5838 5837 5837 5837 5837 5837 5837 5836 5836 5835 5835 5834 5834 5833 5832 5832 5831 5831 5831 5830 5830 5830 5829 5829 5828 5828 5828 5827 5827 5826
5834 5834 5834 5834 5834 5834 5834 5834 5834 5834 5834 5834 5834 5833 5833 5833 5832 5832 5832 5832 5832 5832 5831 5830 5830 5829 5829 5828 5827 5827 5826 5826 5826 5825 5825 5825 5824 5824 5823 5823 5823 5822 5822
5830 5830 5830 5830 5830 5830 5829 5829 5829 5829 5829 5829 5829 5829 5828 5828 5828 5827 5827 5827 5827 5827 5826 5826 5825 5824 5824 5823 5823 5822 5822 5821 5821 5820 5820 5820 5819 5819 5818 5818 5817 5817 5816
5826 5826 5826 5826 5826 5825 5824 5824 5824 5824 5824 5824 5824 5823 5823 5823 5822 5822 5822 5821 5821 5820 5821 5820 5819 5819 5818 5818 5818 5817 5817 5816 5816 5815 5815 5815 5814 5814 5813 5812 5812 5811 5811
5822 5821 5821 5821 5821 5820 5820 5819 5819 5819 5819 5819 5818 5818 5818 5817 5817 5816 5816 5815 5815 5814 5814 5814 5814 5813 5813 5812 5812 5812 5811 5811 5810 5810 5809 5809 5808 5808 5807 5807 5806 5805 5805
5817 5817 5816 5816 5815 5815 5815 5814 5814 5814 5813 5813 5813 5812 5812 5811 5811 5810 5809 5809 5808 5807 5807 5807 5807 5806 5806 5806 5806 5806 5805 5805 5804 5804 5803 5802 5802 5801 5801 5800 5799 5798 5798
5812 5811 5811 5811 5810 5810 5809 5809 5808 5808 5807 5807 5807 5806 5805 5805 5804 5803 5803 5802 5801 5801 5800 5800 5800 5800 5799 5799 5799 5799 5798 5798 5798 5797 5796 5796 5795 5794 5794 5793 5792 5792 5791
5806 5806 5805 5805 5804 5804 5804 5803 5802 5802 5801 5801 5800 5800 5799 5798 5797 5796 5796 5795 5794 5794 5793 5792 5792 5792 5792 5792 5791 5791 5791 5791 5791 5790 5790 5789 5788 5788 5787 5786 5786 5785 5784
5800 5800 5799 5799 5798 5798 5797 5796 5796 5795 5794 5794 5793 5793 5792 5791 5791 5789 5788 5787 5787 5786 5786 5785 5785 5785 5785 5785 5784 5784 5783 5783 5784 5784 5783 5782 5781 5781 5780 5779 5779 5778 5777
5793 5793 5793 5792 5792 5791 5790 5789 5788 5788 5787 5787 5786 5785 5785 5784 5783 5782 5781 5780 5780 5779 5778 5778 5777 5778 5777 5777 5777 5776 5776 5776 5776 5776 5775 5775 5774 5773 5773 5772 5771 5770 5770
5786 5786 5786 5785 5784 5783 5783 5782 5781 5780 5780 5779 5779 5778 5777 5776 5775 5774 5773 5773 5772 5771 5770 5770 5770 5770 5769 5769 5768 5768 5768 5767 5767 5767 5766 5766 5765 5765 5765 5764 5763 5763 5762
5779 5779 5778 5778 5777 5776 5775 5775 5774 5773 5772 5771 5771 5770 5769 5768 5768 5767 5766 5766 5765 5764 5763 5762 5762 5761 5761 5760 5759 5759 5759 5758 5758 5758 5757 5757 5757 5757 5756 5756 5755 5755 5755
5771 5771 5771 5770 5770 5769 5768 5767 5766 5765 5764 5764 5763 5762 5761 5760 5760 5759 5758 5757 5757 5756 5755 5754 5753 5752 5752 5751 5750 5750 5749 5749 5749 5749 5749 5748 5748 5748 5748 5748 5747 5747 5746